Regional Weather Roundup
Issued by NWS

Home | Current Version | Previous Version | Graphics & Text | Print | Product List | Glossary On
Versions: 1 2 3 4 5 6 7 8 9 10 11 12 13 14 15 16 17 18 19 20 21 22 23 24 25 26 27 28
000
ASUS45 KSLC 161410
RWRUT

UTAH REGIONAL WEATHER ROUNDUP
NATIONAL WEATHER SERVICE SALT LAKE CITY UT
800 AM MDT WED APR 16 2014

UTZ001>011-023>025-161500-

NORTHERN UTAH

CITY           SKY/WX    TMP DP  RH WIND       PRES   REMARKS
HILL AFB       PTSUNNY   41  21  44 W2        30.00R
LOGAN          SUNNY     34  24  67 CALM      30.02R
OGDEN          CLOUDY    41  23  48 W6        29.99R
PROVO AIRPORT  NOT AVBL
SALT LAKE CITY PTSUNNY   46  20  35 N6        30.00R
VERNAL         MOSUNNY   42  15  33 NE10      29.94R
WENDOVER       CLOUDY    46  14  27 NW9       30.03S
HEBER CITY     MOSUNNY   36  21  55 SW5       29.99R WCI  32
WEST JORDAN    SUNNY     43  21  42 NW7       30.01R

$$

UTZ012>022-026-027-161500-

SOUTHERN UTAH

CITY           SKY/WX    TMP DP  RH WIND       PRES   REMARKS
BRYCE CANYON   SUNNY     33  17  51 CALM      30.00R
CEDAR CITY     SUNNY     38  14  37 CALM      29.97R
MILFORD        MOSUNNY   45  22  40 N13       29.97S
MOAB/CYNLANDS  SUNNY     43  21  41 CALM      29.89R
PRICE          MOSUNNY   48   9  20 CALM      29.92R
ST GEORGE      MOSUNNY   50  12  22 CALM      29.90R
KANAB            N/A     37  10  32 NE3       29.96R

$$

REGIONAL REPORTS     COLORADO/ARIZONA

CITY           SKY/WX    TMP DP  RH WIND       PRES   REMARKS
CRAIG, CO      CLOUDY    35  22  58 W3        29.98R
GRAND JUNCTION CLOUDY    46  21  37 CALM      29.92R
RIFLE          CLOUDY    43  17  35 NW7       29.97R
MONTROSE       CLOUDY    41  28  60 S5        29.95R
CORTEZ         SUNNY     36  18  48 E5        29.92R WCI  32
PAGE, AZ       PTSUNNY   55   8  15 NW5       29.88R
GRAND CANYON   MOSUNNY   28   0  29 E3        29.98S
KINGMAN        SUNNY     57   3  11 SE7       29.85R
FLAGSTAFF      SUNNY     42  10  27 SW6       29.99R

$$

REGIONAL REPORTS    NEVADA/IDAHO/WYOMING

CITY           SKY/WX    TMP DP  RH WIND       PRES   REMARKS
LAS VEGAS, NV  PTCLDY    62  18  18 S9        29.77R
ELY            CLOUDY    38  17  42 N18G24    30.02R WCI  28
ELKO           CLOUDY    41  26  55 SE3       30.06R
POCATELLO, ID  SUNNY     32  21  64 CALM      30.05R
BURLEY         PTSUNNY   35  26  69 CALM      30.03R
EVANSTON, WY   PTSUNNY   30  12  47 N6        29.99S WCI  24
ROCK SPRINGS   SUNNY     30  11  45 W17       29.97R WCI  18

$$



USA.gov is the U.S. government's official web portal to all federal, state and local government web resources and services.